Overview Statistics Trail Chart Weather Telemetry Raw packets
 

This is the latest recevied weather packets stored in our database for station/object VA2EYZ-13. If no packets are shown the sender has not sent any weather packets the latest 10 day(s).

<< 6 7 8 9 10 11 12 >>
Time Temp. Humidity Pressure Rain* Wind** Luminosity Snow
1788372955 24.44° C 67% 1016.5 hPa - - - -
1788371419 23.89° C 68% 1016 hPa - - - -
1788371098 23.89° C 68% 1016 hPa - - - -
1788370390 23.89° C 68% 1016 hPa - - - -
1788369613 23.89° C 68% 1016.5 hPa - - - -
1788367571 23.89° C 70% 1017 hPa - - - -
1788366795 23.89° C 70% 1017.3 hPa - - - -
1788366408 23.33° C 70% 1017.3 hPa - - - -
1788364433 23.33° C 70% 1017 hPa - - - -
1788363707 23.33° C 70% 1017.8 hPa - - - -
1788363286 23.33° C 70% 1017.8 hPa - - - -
1788362982 23.33° C 70% 1017.8 hPa - - - -
1788360771 22.78° C 72% 1017 hPa - - - -
1788359775 22.78° C 73% 1017.9 hPa - - - -
1788359236 22.78° C 73% 1017 hPa - - - -
1788358797 22.78° C 73% 1017.7 hPa - - - -
1788358426 22.78° C 73% 1017.7 hPa - - - -
1788357826 22.22° C 73% 1017.7 hPa - - - -
1788356030 21.67° C 76% 1017 hPa - - - -
1788354226 20.56° C 76% 1017 hPa - - - -
1788353886 20.56° C 80% 1017 hPa - - - -
1788353431 20° C 80% 1017 hPa - - - -
1788352452 20° C 81% 1017 hPa - - - -
1788352131 19.44° C 82% 1017 hPa - - - -
1788350626 16.67° C 82% 1017.8 hPa - - - -

* Rain since midnight (hover to see other rain measurements)
** Current wind speed in m/s (hover to see current wind gust speed)